Location: A�t Bou Chrif
(32.7193°N, 5.2385°W)
Time: 04:22:09
(UTC+00:00)

USA 186 - Pass Details

Date: 08 August 2020
Orbit: 262 x 428 km, 96.9° (Epoch: 19 September)

Event Time Altitude Azimuth Distance (km) Brightness Sun altitude
Rises 18:51:15 0° 96° (E) 1,930 4.4 3.5°
Enters shadow 19:51:39 -62° 172° (S) 11,725 9.0 -8.4°
Maximum altitude 20:23:26 33° 261° (W) 493 2.6 -14.4°
